,,,PA_Meas_PMT16A,,PR_Meas_QMR101_102,,RH_Meas_QMH101,,SR_Meas_QMS101,,TA_Meas_QMH101,,GenWind,,GenWind,
date,time,status,PA,status,PR,status,RH,status,SR,status,TA,status,DirAvg,status,SpdAvg,
2010-10-17, 00:00:04,VALID,1005.44,VALID,0,VALID,72.215,VALID,498.088,VALID,28.9263,VALID,48,VALID,0.648828,
2010-10-17, 00:01:04,VALID,1005.46,VALID,0,VALID,73.3898,VALID,500.401,VALID,29.1408,VALID,99,VALID,0.607422,
2010-10-17, 00:02:04,VALID,1005.46,VALID,0,VALID,69.1863,VALID,503.82,VALID,29.2578,VALID,110,VALID,0.754687,
2010-10-17, 00:03:04,VALID,1005.47,VALID,0,VALID,69.3541,VALID,508.647,VALID,29.2578,VALID,94,VALID,0.845703,
2010-10-17, 00:04:04,VALID,1005.51,VALID,0,VALID,70.7273,VALID,511.161,VALID,29.2361,VALID,104,VALID,0.807813,
2010-10-17, 00:05:04,VALID,1005.52,VALID,0,VALID,71.0935,VALID,515.385,VALID,29.3943,VALID,106,VALID,0.434766,
2010-10-17, 00:06:04,VALID,1005.52,VALID,0,VALID,69.4381,VALID,520.313,VALID,29.5308,VALID,112,VALID,0.998828,
2010-10-17, 00:07:04,VALID,1005.54,VALID,0,VALID,70.8342,VALID,523.732,VALID,29.5893,VALID,162,VALID,0.971875,
2010-10-17, 00:08:04,VALID,1005.56,VALID,0,VALID,69.2473,VALID,534.291,VALID,29.572,VALID,143,VALID,1.11289,
2010-10-17, 00:09:04,VALID,1005.56,VALID,0,VALID,70.3688,VALID,550.28,VALID,29.5308,VALID,138,VALID,0.199609,
2010-10-17, 00:10:04,VALID,1005.57,VALID,0,VALID,69.6288,VALID,606.193,VALID,29.7063,VALID,109,VALID,0.460938,
2010-10-17, 00:11:04,VALID,1005.57,VALID,0,VALID,69.1711,VALID,268.805,VALID,29.7648,VALID,118,VALID,0.942187,
2010-10-17, 00:12:04,VALID,1005.58,VALID,0,VALID,70.3764,VALID,533.688,VALID,29.7063,VALID,144,VALID,0.995313,
2010-10-17, 00:13:04,VALID,1005.58,VALID,0,VALID,68.8812,VALID,473.249,VALID,29.6868,VALID,103,VALID,0.241016,
2010-10-17, 00:14:04,VALID,1005.56,VALID,0,VALID,68.9346,VALID,268.905,VALID,29.9403,VALID,149,VALID,0.498828,
2010-10-17, 00:15:04,VALID,1005.56,VALID,0,VALID,67.6834,VALID,663.715,VALID,29.9208,VALID,167,VALID,2.08711,
2010-10-17, 00:16:04,VALID,1005.54,VALID,0,VALID,67.63,VALID,425.281,VALID,29.6695,VALID,125,VALID,1.20117,
2010-10-17, 00:17:04,VALID,1005.54,VALID,0,VALID,67.9047,VALID,336.182,VALID,29.611,VALID,175,VALID,1.41094,
2010-10-17, 00:18:04,VALID,1005.56,VALID,0,VALID,69.1863,VALID,582.963,VALID,29.5525,VALID,211,VALID,1.33086,
2010-10-17, 00:19:04,VALID,1005.58,VALID,0,VALID,68.2556,VALID,408.99,VALID,29.4723,VALID,215,VALID,0.717188,
2010-10-17, 00:20:04,VALID,1005.57,VALID,0,VALID,70.7502,VALID,230.792,VALID,29.4138,VALID,186,VALID,0.61875,
2010-10-17, 00:21:04,VALID,1005.59,VALID,0,VALID,70.5824,VALID,227.473,VALID,29.377,VALID,168,VALID,1.76133,
2010-10-17, 00:22:04,VALID,1005.58,VALID,0,VALID,71.8259,VALID,233.407,VALID,29.1625,VALID,173,VALID,1.22578,
2010-10-17, 00:23:04,VALID,1005.55,VALID,0,VALID,71.3605,VALID,361.323,VALID,29.0433,VALID,205,VALID,1.65352,
2010-10-17, 00:24:04,VALID,1005.57,VALID,0,VALID,71.7725,VALID,666.933,VALID,28.9653,VALID,169,VALID,2.05977,
2010-10-17, 00:25:04,VALID,1005.52,VALID,0,VALID,73.0694,VALID,660.497,VALID,29.0065,VALID,178,VALID,1.14375,
2010-10-17, 00:26:04,VALID,1005.54,VALID,0,VALID,71.1698,VALID,658.386,VALID,29.182,VALID,143,VALID,2.22305,
2010-10-17, 00:27:04,VALID,1005.55,VALID,0,VALID,71.8412,VALID,664.52,VALID,29.2968,VALID,146,VALID,1.07695,
2010-10-17, 00:28:04,VALID,1005.57,VALID,0,VALID,71.0478,VALID,692.678,VALID,29.5525,VALID,193,VALID,1.8832,
2010-10-17, 00:29:04,VALID,1005.56,VALID,0,VALID,69.3541,VALID,551.99,VALID,29.6478,VALID,132,VALID,1.34023,
2010-10-17, 00:30:04,VALID,1005.6,VALID,0,VALID,66.028,VALID,710.075,VALID,29.65,VALID,151,VALID,2.21289,
2010-10-17, 00:31:04,VALID,1005.58,VALID,0,VALID,65.7686,VALID,826.627,VALID,29.5113,VALID,177,VALID,1.78555,
2010-10-17, 00:32:04,VALID,1005.58,VALID,0,VALID,66.6688,VALID,731.193,VALID,29.4918,VALID,173,VALID,2.03086,
2010-10-17, 00:33:04,VALID,1005.58,VALID,0,VALID,69.7814,VALID,819.085,VALID,29.6305,VALID,159,VALID,1.71016,
2010-10-17, 00:34:04,VALID,1005.6,VALID,0,VALID,66.9892,VALID,654.061,VALID,29.6695,VALID,147,VALID,1.14297,
2010-10-17, 00:35:04,VALID,1005.58,VALID,0,VALID,68.5913,VALID,396.319,VALID,29.7085,VALID,178,VALID,1.88672,
2010-10-17, 00:36:04,VALID,1005.59,VALID,0,VALID,68.1793,VALID,236.725,VALID,29.5698,VALID,172,VALID,1.8625,
2010-10-17, 00:37:04,VALID,1005.52,VALID,0,VALID,66.4628,VALID,744.266,VALID,29.494,VALID,190,VALID,2.05781,
2010-10-17, 00:38:04,VALID,1005.58,VALID,0,VALID,67.1036,VALID,725.059,VALID,29.3553,VALID,136,VALID,1.63437,
2010-10-17, 00:39:04,VALID,1005.57,VALID,0,VALID,67.6148,VALID,707.36,VALID,29.377,VALID,147,VALID,2.10625,
2010-10-17, 00:40:04,VALID,1005.56,VALID,0,VALID,68.0878,VALID,703.237,VALID,29.4138,VALID,139,VALID,2.075,
2010-10-17, 00:41:04,VALID,1005.59,VALID,0,VALID,68.1869,VALID,693.884,VALID,29.494,VALID,122,VALID,1.76641,
2010-10-17, 00:42:04,VALID,1005.58,VALID,0,VALID,66.4552,VALID,684.633,VALID,29.5698,VALID,162,VALID,1.69844,
2010-10-17, 00:43:04,VALID,1005.56,VALID,0,VALID,66.3407,VALID,680.912,VALID,29.6283,VALID,179,VALID,2.04492,
2010-10-17, 00:44:04,VALID,1005.58,VALID,0,VALID,70.2315,VALID,672.867,VALID,29.7865,VALID,141,VALID,1.18359,
2010-10-17, 00:45:04,VALID,1005.56,VALID,0,VALID,65.6694,VALID,673.772,VALID,29.8038,VALID,139,VALID,1.42539,
2010-10-17, 00:46:04,VALID,1005.54,VALID,0,VALID,66.3713,VALID,671.559,VALID,29.806,VALID,183,VALID,2.01758,
2010-10-17, 00:47:04,VALID,1005.52,VALID,0,VALID,66.9968,VALID,674.073,VALID,29.7063,VALID,164,VALID,1.78125,
2010-10-17, 00:48:04,VALID,1005.53,VALID,0,VALID,69.7356,VALID,664.218,VALID,29.6695,VALID,164,VALID,2.28398,
2010-10-17, 00:49:04,VALID,1005.49,VALID,0,VALID,70.056,VALID,672.565,VALID,29.7085,VALID,121,VALID,1.67227,
2010-10-17, 00:50:04,VALID,1005.5,VALID,0,VALID,67.1341,VALID,677.694,VALID,29.8038,VALID,121,VALID,1.58203,
2010-10-17, 00:51:04,VALID,1005.45,VALID,0,VALID,68.042,VALID,678.8,VALID,29.7843,VALID,120,VALID,2.08242,
2010-10-17, 00:52:04,VALID,1005.45,VALID,0,VALID,66.5544,VALID,680.107,VALID,29.7475,VALID,129,VALID,1.81289,
2010-10-17, 00:53:04,VALID,1005.42,VALID,0,VALID,68.5531,VALID,682.722,VALID,29.7865,VALID,166,VALID,0.881641,
2010-10-17, 00:54:04,VALID,1005.44,VALID,0,VALID,67.0731,VALID,687.147,VALID,29.845,VALID,153,VALID,2.30078,
2010-10-17, 00:55:04,VALID,1005.43,VALID,0,VALID,67.2944,VALID,689.359,VALID,29.806,VALID,157,VALID,1.54258,
2010-10-17, 00:56:04,VALID,1005.43,VALID,0,VALID,67.2028,VALID,693.683,VALID,29.767,VALID,129,VALID,2.43672,
2010-10-17, 00:57:04,VALID,1005.44,VALID,0,VALID,65.4939,VALID,696.7,VALID,29.806,VALID,147,VALID,1.22891,
2010-10-17, 00:58:04,VALID,1005.44,VALID,0,VALID,66.0508,VALID,700.019,VALID,29.845,VALID,193,VALID,2.79922,
2010-10-17, 00:59:04,VALID,1005.47,VALID,0,VALID,67.1189,VALID,703.036,VALID,29.8255,VALID,143,VALID,1.26289,
2010-10-17, 01:00:04,VALID,1005.46,VALID,0,VALID,67.0273,VALID,710.377,VALID,29.8233,VALID,112,VALID,1.4832,
2010-10-17, 01:01:04,VALID,1005.48,VALID,0,VALID,66.9587,VALID,712.589,VALID,29.8645,VALID,142,VALID,0.839453,
2010-10-17, 01:02:04,VALID,1005.46,VALID,0,VALID,67.6605,VALID,719.025,VALID,30.0011,VALID,141,VALID,1.73125,
2010-10-17, 01:03:04,VALID,1005.47,VALID,0,VALID,66.6078,VALID,723.148,VALID,29.9816,VALID,152,VALID,2.25898,
2010-10-17, 01:04:04,VALID,1005.48,VALID,0,VALID,65.883,VALID,725.361,VALID,29.884,VALID,190,VALID,1.64023,
2010-10-17, 01:05:04,VALID,1005.49,VALID,0,VALID,67.5919,VALID,736.422,VALID,29.8645,VALID,172,VALID,2.11133,
2010-10-17, 01:06:04,VALID,1005.47,VALID,0,VALID,70.9257,VALID,759.451,VALID,29.9793,VALID,167,VALID,1.28906,
2010-10-17, 01:07:04,VALID,1005.46,VALID,0,VALID,67.2104,VALID,794.045,VALID,30.2156,VALID,213,VALID,1.49063,
2010-10-17, 01:08:04,VALID,1005.46,VALID,0,VALID,68.1183,VALID,791.732,VALID,30.2936,VALID,165,VALID,2.01445,
2010-10-17, 01:09:04,VALID,1005.43,VALID,0,VALID,65.822,VALID,779.363,VALID,30.2156,VALID,175,VALID,2.15898,
2010-10-17, 01:10:04,VALID,1005.42,VALID,0,VALID,68.0801,VALID,773.43,VALID,30.1766,VALID,171,VALID,2.61172,
2010-10-17, 01:11:04,VALID,1005.4,VALID,0,VALID,68.4005,VALID,776.346,VALID,30.0401,VALID,170,VALID,1.60898,
2010-10-17, 01:12:04,VALID,1005.41,VALID,0,VALID,68.4539,VALID,786.402,VALID,30.0768,VALID,177,VALID,1.94609,
2010-10-17, 01:13:04,VALID,1005.42,VALID,0,VALID,66.3102,VALID,794.347,VALID,30.0206,VALID,128,VALID,2.66563,
2010-10-17, 01:14:04,VALID,1005.44,VALID,0,VALID,68.0572,VALID,810.94,VALID,30.0206,VALID,133,VALID,1.23945,
2010-10-17, 01:15:04,VALID,1005.44,VALID,0,VALID,67.569,VALID,822.705,VALID,30.1938,VALID,133,VALID,1.03477,
2010-10-17, 01:16:04,VALID,1005.41,VALID,0,VALID,67.4927,VALID,812.649,VALID,30.3499,VALID,135,VALID,2.16367,
2010-10-17, 01:17:04,VALID,1005.39,VALID,0,VALID,68.9956,VALID,801.99,VALID,30.4669,VALID,147,VALID,1.88203,
2010-10-17, 01:18:04,VALID,1005.39,VALID,0,VALID,68.1335,VALID,796.056,VALID,30.3499,VALID,169,VALID,2.90547,
2010-10-17, 01:19:04,VALID,1005.37,VALID,0,VALID,69.583,VALID,794.246,VALID,30.2913,VALID,173,VALID,2.56719,
2010-10-17, 01:20:04,VALID,1005.34,VALID,0,VALID,67.7063,VALID,788.715,VALID,30.1548,VALID,198,VALID,2.56914,
2010-10-17, 01:21:04,VALID,1005.34,VALID,0,VALID,67.4927,VALID,785.497,VALID,30.1353,VALID,169,VALID,1.71914,
2010-10-17, 01:22:04,VALID,1005.34,VALID,0,VALID,69.9797,VALID,783.687,VALID,30.2305,VALID,152,VALID,1.4668,
2010-10-17, 01:23:04,VALID,1005.31,VALID,0,VALID,69.0185,VALID,783.788,VALID,30.4084,VALID,193,VALID,2.47266,
2010-10-17, 01:24:04,VALID,1005.35,VALID,0,VALID,68.042,VALID,785.799,VALID,30.3304,VALID,175,VALID,2.74102,
2010-10-17, 01:25:04,VALID,1005.32,VALID,0,VALID,66.2339,VALID,786.302,VALID,30.1548,VALID,194,VALID,1.44805,
2010-10-17, 01:26:04,VALID,1005.28,VALID,0,VALID,67.241,VALID,788.514,VALID,30.2328,VALID,213,VALID,2.63398,
2010-10-17, 01:27:04,VALID,1005.33,VALID,0,VALID,67.241,VALID,790.324,VALID,30.1766,VALID,137,VALID,3.05078,
2010-10-17, 01:28:04,VALID,1005.33,VALID,0,VALID,64.1131,VALID,791.028,VALID,30.0183,VALID,137,VALID,2.94219,
2010-10-17, 01:29:04,VALID,1005.35,VALID,0,VALID,67.9504,VALID,793.14,VALID,29.9988,VALID,136,VALID,2.14883,
2010-10-17, 01:30:04,VALID,1005.36,VALID,0,VALID,67.7673,VALID,796.66,VALID,30.1376,VALID,171,VALID,2.34219,
2010-10-17, 01:31:04,VALID,1005.34,VALID,0,VALID,68.1488,VALID,798.369,VALID,30.1766,VALID,144,VALID,1.78711,
2010-10-17, 01:32:04,VALID,1005.37,VALID,0,VALID,66.9358,VALID,800.883,VALID,30.1376,VALID,162,VALID,1.85742,
2010-10-17, 01:33:04,VALID,1005.33,VALID,0,VALID,65.7991,VALID,804.504,VALID,30.0206,VALID,145,VALID,2.96367,
2010-10-17, 01:34:04,VALID,1005.34,VALID,0,VALID,65.0515,VALID,805.006,VALID,29.8818,VALID,150,VALID,2.39922,
2010-10-17, 01:35:04,VALID,1005.37,VALID,0,VALID,67.8436,VALID,808.828,VALID,29.8818,VALID,179,VALID,1.72461,
2010-10-17, 01:36:04,VALID,1005.29,VALID,0,VALID,67.9886,VALID,810.839,VALID,30.0378,VALID,192,VALID,1.91016,
2010-10-17, 01:37:04,VALID,1005.33,VALID,0,VALID,66.7298,VALID,812.951,VALID,30.0986,VALID,130,VALID,1.63594,
2010-10-17, 01:38:04,VALID,1005.3,VALID,0,VALID,68.0954,VALID,815.867,VALID,30.1938,VALID,140,VALID,1.73359,
2010-10-17, 01:39:04,VALID,1005.3,VALID,0,VALID,67.6071,VALID,818.985,VALID,30.2913,VALID,181,VALID,1.90859,
2010-10-17, 01:40:04,VALID,1005.3,VALID,0,VALID,64.9218,VALID,820.694,VALID,30.2913,VALID,148,VALID,1.50078,
2010-10-17, 01:41:04,VALID,1005.28,VALID,0,VALID,65.8678,VALID,821.599,VALID,30.1548,VALID,145,VALID,2.36836,
2010-10-17, 01:42:04,VALID,1005.27,VALID,0,VALID,67.5461,VALID,823.409,VALID,30.1376,VALID,149,VALID,1.56328,
2010-10-17, 01:43:04,VALID,1005.3,VALID,0,VALID,66.9511,VALID,827.532,VALID,30.1158,VALID,193,VALID,1.94219,
2010-10-17, 01:44:04,VALID,1005.31,VALID,0,VALID,70.2696,VALID,826.829,VALID,30.1938,VALID,154,VALID,1.80508,
2010-10-17, 01:45:04,VALID,1005.31,VALID,0,VALID,65.7076,VALID,827.03,VALID,30.3889,VALID,145,VALID,2.13672,
2010-10-17, 01:46:04,VALID,1005.27,VALID,0,VALID,65.3719,VALID,831.153,VALID,30.2328,VALID,137,VALID,2.02695,
2010-10-17, 01:47:04,VALID,1005.27,VALID,0,VALID,65.9669,VALID,836.885,VALID,30.055,VALID,129,VALID,2.88047,
2010-10-17, 01:48:04,VALID,1005.26,VALID,0,VALID,67.8513,VALID,838.293,VALID,30.0378,VALID,131,VALID,1.76328,
2010-10-17, 01:49:04,VALID,1005.22,VALID,0,VALID,65.2956,VALID,841.812,VALID,29.938,VALID,140,VALID,2.74297,
2010-10-17, 01:50:04,VALID,1005.26,VALID,0,VALID,66.9739,VALID,843.824,VALID,30.0573,VALID,131,VALID,2.46133,
2010-10-17, 01:51:04,VALID,1005.25,VALID,0,VALID,66.4552,VALID,846.036,VALID,29.9793,VALID,150,VALID,1.43789,
2010-10-17, 01:52:04,VALID,1005.27,VALID,0,VALID,64.1741,VALID,846.237,VALID,30.0768,VALID,190,VALID,2.89219,
2010-10-17, 01:53:04,VALID,1005.24,VALID,0,VALID,61.6414,VALID,850.662,VALID,30.094,VALID,155,VALID,2.1582,
2010-10-17, 01:54:04,VALID,1005.23,VALID,0,VALID,60.0088,VALID,852.874,VALID,30.1135,VALID,150,VALID,1.04336,
2010-10-17, 01:55:04,VALID,1005.21,VALID,0,VALID,64.5708,VALID,854.182,VALID,30.2328,VALID,163,VALID,0.827734,
2010-10-17, 01:56:04,VALID,1005.18,VALID,0,VALID,63.1442,VALID,857.299,VALID,30.3109,VALID,169,VALID,0.308984,
2010-10-17, 01:57:04,VALID,1005.14,VALID,0,VALID,66.9511,VALID,859.813,VALID,30.5254,VALID,136,VALID,1.02734,
2010-10-17, 01:58:04,VALID,1005.13,VALID,0,VALID,65.3643,VALID,862.026,VALID,30.4451,VALID,172,VALID,1.74883,
2010-10-17, 01:59:04,VALID,1005.13,VALID,0,VALID,67.0655,VALID,865.042,VALID,30.4084,VALID,165,VALID,1.17969,
2010-10-17, 02:00:04,VALID,1005.1,VALID,0,VALID,64.5708,VALID,867.054,VALID,30.5449,VALID,105,VALID,1.46133,
2010-10-17, 02:01:04,VALID,1005.09,VALID,0,VALID,64.0063,VALID,869.065,VALID,30.4669,VALID,159,VALID,0.976172,
2010-10-17, 02:02:04,VALID,1005.08,VALID,0,VALID,65.4329,VALID,868.763,VALID,30.6034,VALID,140,VALID,1.7375,
2010-10-17, 02:03:04,VALID,1005.07,VALID,0,VALID,66.9511,VALID,872.786,VALID,30.6815,VALID,129,VALID,1.2293,
2010-10-17, 02:04:04,VALID,1005.08,VALID,0,VALID,60.6267,VALID,873.49,VALID,30.662,VALID,163,VALID,2.75117,
2010-10-17, 02:05:04,VALID,1005.09,VALID,0,VALID,61.7787,VALID,875.4,VALID,30.6791,VALID,194,VALID,1.44414,
2010-10-17, 02:06:04,VALID,1005.09,VALID,0,VALID,65.6007,VALID,310.136,VALID,30.74,VALID,173,VALID,1.62539,
2010-10-17, 02:07:04,VALID,1005.04,VALID,0,VALID,66.6383,VALID,882.339,VALID,30.662,VALID,160,VALID,2.10781,
2010-10-17, 02:08:04,VALID,1005.05,VALID,0,VALID,69.4991,VALID,881.736,VALID,30.5426,VALID,140,VALID,2.28008,
2010-10-17, 02:09:04,VALID,1005.06,VALID,0,VALID,66.2339,VALID,882.239,VALID,30.4669,VALID,195,VALID,2.62969,
2010-10-17, 02:10:04,VALID,1005.05,VALID,0,VALID,68.8506,VALID,74.0143,VALID,30.3304,VALID,194,VALID,2.35586,
2010-10-17, 02:11:04,VALID,1005.08,VALID,0,VALID,69.6593,VALID,885.96,VALID,30.2328,VALID,145,VALID,2.58203,
2010-10-17, 02:12:04,VALID,1005.07,VALID,0,VALID,68.1412,VALID,889.58,VALID,30.2328,VALID,162,VALID,2.22227,
2010-10-17, 02:13:04,VALID,1005.06,VALID,0,VALID,67.3478,VALID,890.585,VALID,30.3109,VALID,153,VALID,2.28867,
2010-10-17, 02:14:04,VALID,1005.04,VALID,0,VALID,68.515,VALID,599.154,VALID,30.3499,VALID,171,VALID,1.73008,
2010-10-17, 02:15:04,VALID,1005,VALID,0,VALID,66.1653,VALID,283.688,VALID,30.2936,VALID,196,VALID,2.85703,
2010-10-17, 02:16:04,VALID,1005,VALID,0,VALID,71.7572,VALID,897.524,VALID,30.1548,VALID,131,VALID,2.3457,
2010-10-17, 02:17:04,VALID,1005.02,VALID,0,VALID,68.1106,VALID,899.133,VALID,30.2133,VALID,197,VALID,2.46406,
2010-10-17, 02:18:04,VALID,1004.98,VALID,0,VALID,70.4069,VALID,898.429,VALID,30.055,VALID,177,VALID,2.25547,
2010-10-17, 02:19:04,VALID,1004.96,VALID,0,VALID,71.681,VALID,889.077,VALID,30.0768,VALID,181,VALID,1.6793,
2010-10-17, 02:20:04,VALID,1004.97,VALID,0,VALID,68.3624,VALID,903.055,VALID,30.1158,VALID,183,VALID,2.57305,
2010-10-17, 02:21:04,VALID,1004.96,VALID,0,VALID,69.3999,VALID,875.099,VALID,29.977,VALID,156,VALID,1.23125,
2010-10-17, 02:22:04,VALID,1004.95,VALID,0,VALID,71.4597,VALID,906.173,VALID,30.1135,VALID,172,VALID,1.24648,
2010-10-17, 02:23:04,VALID,1004.94,VALID,0,VALID,70.5671,VALID,907.782,VALID,30.211,VALID,152,VALID,1.06289,
2010-10-17, 02:24:04,VALID,1004.93,VALID,0,VALID,68.4692,VALID,909.29,VALID,30.3694,VALID,204,VALID,1.68945,
2010-10-17, 02:25:04,VALID,1004.88,VALID,0,VALID,70.4756,VALID,74.8188,VALID,30.4451,VALID,165,VALID,2.0918,
2010-10-17, 02:26:04,VALID,1004.86,VALID,0,VALID,67.8894,VALID,915.324,VALID,30.4474,VALID,202,VALID,2.20078,
2010-10-17, 02:27:04,VALID,1004.83,VALID,0,VALID,70.4909,VALID,157.381,VALID,30.3109,VALID,165,VALID,2.05312,
2010-10-17, 02:28:04,VALID,1004.84,VALID,0,VALID,69.8729,VALID,916.028,VALID,30.2133,VALID,147,VALID,2.42891,
2010-10-17, 02:29:04,VALID,1004.83,VALID,0,VALID,69.4228,VALID,917.436,VALID,29.9598,VALID,144,VALID,1.86133,
2010-10-17, 02:30:04,VALID,1004.79,VALID,0,VALID,70.5748,VALID,918.542,VALID,29.899,VALID,142,VALID,1.11758,
2010-10-17, 02:31:04,VALID,1004.74,VALID,0,VALID,71.8259,VALID,834.471,VALID,30.0768,VALID,160,VALID,1.91797,
2010-10-17, 02:32:04,VALID,1004.72,VALID,0,VALID,73.5958,VALID,922.263,VALID,30.3476,VALID,158,VALID,1.17734,
2010-10-17, 02:33:04,VALID,1004.69,VALID,0,VALID,67.7445,VALID,923.47,VALID,30.7181,VALID,239,VALID,1.01992,
2010-10-17, 02:34:04,VALID,1004.7,VALID,0,VALID,70.6053,VALID,923.872,VALID,30.9546,VALID,168,VALID,1.14805,
2010-10-17, 02:35:04,VALID,1004.69,VALID,0,VALID,66.5238,VALID,924.475,VALID,30.9351,VALID,151,VALID,1.78242,
2010-10-17, 02:36:04,VALID,1004.68,VALID,0,VALID,65.1278,VALID,925.883,VALID,30.6815,VALID,124,VALID,1.2082,
2010-10-17, 02:37:04,VALID,1004.66,VALID,0,VALID,68.6523,VALID,925.481,VALID,30.5644,VALID,160,VALID,1.61641,
2010-10-17, 02:38:04,VALID,1004.62,VALID,0,VALID,66.8519,VALID,929.604,VALID,30.5426,VALID,200,VALID,2.35977,
2010-10-17, 02:39:04,VALID,1004.61,VALID,0,VALID,66.6764,VALID,87.6909,VALID,30.4669,VALID,159,VALID,1.98086,
2010-10-17, 02:40:04,VALID,1004.65,VALID,0,VALID,67.6529,VALID,931.816,VALID,30.4841,VALID,143,VALID,1.59727,
2010-10-17, 02:41:04,VALID,1004.63,VALID,0,VALID,66.6535,VALID,931.515,VALID,30.6034,VALID,150,VALID,1.8043,
2010-10-17, 02:42:04,VALID,1004.6,VALID,0,VALID,65.7915,VALID,933.928,VALID,30.7962,VALID,203,VALID,1.46133,
2010-10-17, 02:43:04,VALID,1004.65,VALID,0,VALID,64.3496,VALID,937.247,VALID,30.662,VALID,200,VALID,2.95078,
2010-10-17, 02:44:04,VALID,1004.62,VALID,0,VALID,66.2187,VALID,937.046,VALID,30.5449,VALID,198,VALID,0.945703,
2010-10-17, 02:45:04,VALID,1004.59,VALID,0,VALID,64.9904,VALID,938.856,VALID,30.6011,VALID,204,VALID,1.89805,
2010-10-17, 02:46:04,VALID,1004.6,VALID,0,VALID,66.0432,VALID,937.548,VALID,30.6229,VALID,144,VALID,1.87969,
2010-10-17, 02:47:04,VALID,1004.59,VALID,0,VALID,65.1888,VALID,939.157,VALID,30.662,VALID,185,VALID,1.6957,
2010-10-17, 02:48:04,VALID,1004.57,VALID,0,VALID,64.4869,VALID,940.264,VALID,30.5839,VALID,201,VALID,2.16797,
2010-10-17, 02:49:04,VALID,1004.54,VALID,0,VALID,67.5003,VALID,942.174,VALID,30.4256,VALID,146,VALID,1.88398,
2010-10-17, 02:50:04,VALID,1004.53,VALID,0,VALID,66.2492,VALID,228.278,VALID,30.5839,VALID,144,VALID,0.686328,
2010-10-17, 02:51:04,VALID,1004.54,VALID,0,VALID,66.8214,VALID,945.392,VALID,30.7205,VALID,211,VALID,2.18906,
2010-10-17, 02:52:04,VALID,1004.55,VALID,0,VALID,66.4704,VALID,946.197,VALID,30.779,VALID,200,VALID,1.8918,
2010-10-17, 02:53:04,VALID,1004.53,VALID,0,VALID,65.8144,VALID,946.599,VALID,30.8203,VALID,195,VALID,1.0418,
2010-10-17, 02:54:04,VALID,1004.55,VALID,0,VALID,64.9752,VALID,948.51,VALID,30.7595,VALID,151,VALID,2.96992,
2010-10-17, 02:55:04,VALID,1004.5,VALID,0,VALID,67.4851,VALID,946.096,VALID,30.6229,VALID,163,VALID,1.14023,
2010-10-17, 02:56:04,VALID,1004.52,VALID,0,VALID,68.1793,VALID,952.331,VALID,30.6815,VALID,195,VALID,1.58398,
2010-10-17, 02:57:04,VALID,1004.49,VALID,0,VALID,65.1506,VALID,953.84,VALID,30.701,VALID,138,VALID,2.11328,
2010-10-17, 02:58:04,VALID,1004.51,VALID,0,VALID,67.0121,VALID,952.834,VALID,30.6424,VALID,159,VALID,2.29141,
2010-10-17, 02:59:04,VALID,1004.53,VALID,0,VALID,66.8214,VALID,956.052,VALID,30.5426,VALID,182,VALID,2.08594,
2010-10-17, 03:00:04,VALID,1004.48,VALID,0,VALID,66.8671,VALID,954.946,VALID,30.5449,VALID,192,VALID,0.83125,
2010-10-17, 03:01:04,VALID,1004.47,VALID,0,VALID,67.7902,VALID,955.147,VALID,30.6229,VALID,173,VALID,1.51367,
2010-10-17, 03:02:04,VALID,1004.46,VALID,0,VALID,67.7216,VALID,954.946,VALID,30.6034,VALID,118,VALID,2.17969,
2010-10-17, 03:03:04,VALID,1004.48,VALID,0,VALID,68.6828,VALID,956.454,VALID,30.6815,VALID,150,VALID,1.3832,
2010-10-17, 03:04:04,VALID,1004.42,VALID,0,VALID,69.0871,VALID,958.968,VALID,30.8765,VALID,196,VALID,1.78008,
2010-10-17, 03:05:04,VALID,1004.45,VALID,0,VALID,66.0203,VALID,959.974,VALID,31.0521,VALID,167,VALID,2.10195,
2010-10-17, 03:06:04,VALID,1004.41,VALID,0,VALID,67.9962,VALID,959.471,VALID,30.9155,VALID,172,VALID,1.7418,
2010-10-17, 03:07:04,VALID,1004.42,VALID,0,VALID,66.7832,VALID,961.181,VALID,30.9327,VALID,189,VALID,1.50312,
2010-10-17, 03:08:04,VALID,1004.41,VALID,0,VALID,65.3566,VALID,961.482,VALID,30.8765,VALID,172,VALID,1.5082,
2010-10-17, 03:09:04,VALID,1004.43,VALID,0,VALID,65.2956,VALID,964.499,VALID,30.5839,VALID,189,VALID,2.78437,
2010-10-17, 03:10:04,VALID,1004.4,VALID,0,VALID,68.1564,VALID,963.695,VALID,30.4474,VALID,170,VALID,1.86797,
2010-10-17, 03:11:04,VALID,1004.38,VALID,0,VALID,64.2199,VALID,965.706,VALID,30.5449,VALID,269,VALID,0.970703,
2010-10-17, 03:12:04,VALID,1004.37,VALID,0,VALID,66.8748,VALID,965.605,VALID,30.6424,VALID,199,VALID,2.55664,
2010-10-17, 03:13:04,VALID,1004.32,VALID,0,VALID,66.1195,VALID,964.097,VALID,30.5254,VALID,163,VALID,2.08477,
2010-10-17, 03:14:04,VALID,1004.33,VALID,0,VALID,63.129,VALID,968.522,VALID,30.4084,VALID,155,VALID,1.33125,
2010-10-17, 03:15:04,VALID,1004.31,VALID,0,VALID,66.4704,VALID,970.734,VALID,30.3499,VALID,147,VALID,2.25664,
2010-10-17, 03:16:04,VALID,1004.31,VALID,0,VALID,65.4558,VALID,972.041,VALID,30.4474,VALID,146,VALID,2.72109,
2010-10-17, 03:17:04,VALID,1004.31,VALID,0,VALID,66.1271,VALID,971.639,VALID,30.4061,VALID,160,VALID,1.95664,
2010-10-17, 03:18:04,VALID,1004.28,VALID,0,VALID,68.3471,VALID,967.717,VALID,30.4084,VALID,185,VALID,1.38945,
2010-10-17, 03:19:04,VALID,1004.3,VALID,0,VALID,69.3008,VALID,970.131,VALID,30.5059,VALID,189,VALID,1.66719,
2010-10-17, 03:20:04,VALID,1004.26,VALID,0,VALID,67.6071,VALID,971.136,VALID,30.5816,VALID,200,VALID,2.07305,
2010-10-17, 03:21:04,VALID,1004.25,VALID,0,VALID,68.3471,VALID,971.74,VALID,30.5449,VALID,215,VALID,2.51953,
2010-10-17, 03:22:04,VALID,1004.26,VALID,0,VALID,66.4857,VALID,973.449,VALID,30.5839,VALID,196,VALID,1.88867,
2010-10-17, 03:23:04,VALID,1004.17,VALID,0,VALID,66.3789,VALID,975.662,VALID,30.5036,VALID,201,VALID,1.43477,
2010-10-17, 03:24:04,VALID,1004.16,VALID,0,VALID,69.583,VALID,976.567,VALID,30.4669,VALID,174,VALID,1.67578,
2010-10-17, 03:25:04,VALID,1004.11,VALID,0,VALID,68.9498,VALID,981.494,VALID,30.5644,VALID,181,VALID,2.94336,
2010-10-17, 03:26:04,VALID,1004.09,VALID,0,VALID,70.4146,VALID,979.684,VALID,30.662,VALID,156,VALID,2.35547,
2010-10-17, 03:27:04,VALID,1004.06,VALID,0,VALID,67.0502,VALID,979.986,VALID,30.7985,VALID,212,VALID,2.84023,
2010-10-17, 03:28:04,VALID,1004,VALID,0,VALID,68.9498,VALID,979.181,VALID,30.74,VALID,198,VALID,2.50156,
2010-10-17, 03:29:04,VALID,1004.02,VALID,0,VALID,67.4546,VALID,979.383,VALID,30.7181,VALID,164,VALID,3.01953,
2010-10-17, 03:30:04,VALID,1004.02,VALID,0,VALID,68.3319,VALID,978.578,VALID,30.5644,VALID,136,VALID,2.85156,
2010-10-17, 03:31:04,VALID,1003.92,VALID,0,VALID,69.2168,VALID,977.17,VALID,30.4669,VALID,125,VALID,1.41914,
2010-10-17, 03:32:04,VALID,1003.94,VALID,0,VALID,68.7286,VALID,979.282,VALID,30.6424,VALID,193,VALID,2.55938,
2010-10-17, 03:33:04,VALID,1003.99,VALID,0,VALID,67.5919,VALID,982.198,VALID,30.4669,VALID,167,VALID,3.4457,
2010-10-17, 03:34:04,VALID,1003.95,VALID,0,VALID,69.377,VALID,983.606,VALID,30.3109,VALID,166,VALID,2.80547,